Antigo, WI

6:56 PM CST on February 24, 2017 (GMT -0600)
Langlade County

Weather History for KAIG - June, 2013

Change the Weather History Date:

Monday, June 3, 2013

  Actual Average Record
Temperature  
Mean Temperature 52 °F -  
Max Temperature 67 °F 71 °F 88 °F (1948)
Min Temperature 36 °F 44 °F 34 °F (1985)
Degree Days  
Heating Degree Days 14    
Growing Degree Days 2 (Base 50)    
Moisture  
Dew Point 40 °F    
Average Humidity 65    
Maximum Humidity 98    
Minimum Humidity 37    
Precipitation  
Precipitation 0.00 in - - ()
Sea Level Pressure  
Sea Level Pressure 30.05 in    
Wind  
Wind Speed 3 mph (NNW)    
Max Wind Speed 15 mph    
Max Gust Speed 22 mph    
Visibility 10 miles    
Events      
Averages and records for this station are not official NWS values.
T = Trace of Precipitation, MM = Missing Value Source: NWS Daily Summary

Daily Weather History Graph

Daily Weather History Graph

Search for Another Location

Airport or City:

Trip Planner

Search our weather history database for the weather conditions in past years. The results will help you decide how hot, cold, wet, or windy it might be!

Date:

Astronomy

Jun. 03, 2013 Rise Set
Actual Time 5:11 AM CDT 8:38 PM CDT
Civil Twilight 4:34 AM CDT 9:15 PM CDT
Nautical Twilight 3:46 AM CDT 10:03 PM CDT
Astronomical Twilight 2:44 AM CDT 11:05 PM CDT
Moon 2:21 AM CDT (6/3) 3:58 PM CDT (6/3)
Length of Visible Light 16h 40m
Length of Day
15h 27m
Waning Crescent, 22% of the Moon is Illuminated
Jun 3
Waning Crescent
Jun 8
New
Jun 16
First Quarter
Jun 23
Full
Jun 29
Last Quarter

Hourly Weather History & Observations

Time (CDT) Temp. Windchill Dew Point Humidity Pressure Visibility Wind Dir Wind Speed Gust Speed Precip Events Conditions
12:15 AM 41.7 °F - 40.1 °F 94% 30.03 in 10.0 mi Calm Calm - N/A   Clear
12:35 AM 41.5 °F - 39.2 °F 91% 30.03 in 10.0 mi Calm Calm - N/A   Clear
12:55 AM 41.2 °F - 37.8 °F 88% 30.03 in 10.0 mi Calm Calm - N/A   Clear
1:15 AM 40.1 °F - 38.5 °F 94% 30.02 in 10.0 mi Calm Calm - N/A   Clear
1:35 AM 40.6 °F - 38.3 °F 91% 30.03 in 10.0 mi Calm Calm - N/A   Clear
1:55 AM 39.2 °F - 37.6 °F 94% 30.03 in 10.0 mi Calm Calm - N/A   Clear
2:15 AM 38.3 °F - 37.2 °F 96% 30.03 in 10.0 mi Calm Calm - N/A   Clear
2:35 AM 38.1 °F - 37.6 °F 98% 30.03 in 10.0 mi Calm Calm - N/A   Clear
2:55 AM 37.8 °F - 37.0 °F 97% 30.03 in 10.0 mi Calm Calm - N/A   Clear
3:15 AM 37.8 °F - 37.0 °F 97% 30.03 in 10.0 mi Calm Calm - N/A   Clear
3:35 AM 38.3 °F - 37.4 °F 97% 30.03 in 10.0 mi Calm Calm - N/A   Clear
3:55 AM 38.5 °F - 37.6 °F 97% 30.03 in 10.0 mi Calm Calm - N/A   Clear
4:15 AM 37.8 °F - 36.9 °F 97% 30.03 in 10.0 mi Calm Calm - N/A   Clear
4:35 AM 37.6 °F - 36.3 °F 95% 30.03 in 10.0 mi Calm Calm - N/A   Clear
4:55 AM 36.9 °F - 36.1 °F 97% 30.04 in 10.0 mi Calm Calm - N/A   Clear
5:15 AM 36.7 °F - 35.8 °F 97% 30.04 in 10.0 mi Calm Calm - N/A   Clear
5:35 AM 36.7 °F 34.1 °F 35.4 °F 95% 30.04 in 10.0 mi NE 3.5 mph - N/A   Clear
5:55 AM 36.7 °F 32.0 °F 35.6 °F 96% 30.04 in 10.0 mi NE 5.8 mph - N/A   Clear
6:15 AM 38.7 °F 36.3 °F 37.2 °F 95% 30.04 in 10.0 mi NNE 3.5 mph - N/A   Clear
6:35 AM 41.2 °F - 38.8 °F 91% 30.05 in 10.0 mi Calm Calm - N/A   Clear
6:55 AM 43.5 °F - 39.7 °F 87% 30.05 in 10.0 mi Calm Calm - N/A   Clear
7:15 AM 45.5 °F - 40.5 °F 83% 30.05 in 10.0 mi Calm Calm - N/A   Clear
7:35 AM 48.0 °F - 40.5 °F 75% 30.05 in 10.0 mi Calm Calm - N/A   Clear
7:55 AM 50.2 °F - 42.6 °F 75% 30.05 in 10.0 mi Calm Calm - N/A   Clear
8:15 AM 52.2 °F - 42.8 °F 70% 30.06 in 10.0 mi West 5.8 mph - N/A   Clear
8:35 AM 52.7 °F - 42.4 °F 68% 30.05 in 10.0 mi Calm Calm - N/A   Clear
8:55 AM 54.5 °F - 43.2 °F 66% 30.06 in 10.0 mi Calm Calm - N/A   Clear
9:15 AM 55.4 °F - 43.7 °F 65% 30.06 in 10.0 mi NNW 4.6 mph - N/A   Clear
9:35 AM 56.8 °F - 44.6 °F 64% 30.05 in 10.0 mi NW 3.5 mph - N/A   Clear
9:55 AM 57.9 °F - 43.9 °F 60% 30.06 in 10.0 mi WNW 5.8 mph - N/A   Clear
10:15 AM 58.8 °F - 43.9 °F 58% 30.05 in 10.0 mi WNW 8.1 mph - N/A   Clear
10:35 AM 59.5 °F - 42.3 °F 53% 30.05 in 10.0 mi WNW 5.8 mph - N/A   Clear
10:55 AM 60.8 °F - 41.0 °F 48% 30.05 in 10.0 mi West 9.2 mph 17.3 mph N/A   Mostly Cloudy
11:15 AM 61.9 °F - 42.4 °F 49% 30.05 in 10.0 mi NW 11.5 mph 18.4 mph N/A   Scattered Clouds
11:35 AM 61.9 °F - 41.4 °F 47% 30.05 in 10.0 mi West 10.4 mph - N/A   Scattered Clouds
11:55 AM 62.4 °F - 41.5 °F 46% 30.05 in 10.0 mi WNW 10.4 mph - N/A   Scattered Clouds
12:15 PM 63.5 °F - 42.8 °F 47% 30.05 in 10.0 mi WNW 6.9 mph 16.1 mph N/A   Scattered Clouds
12:35 PM 63.9 °F - 42.3 °F 45% 30.05 in 10.0 mi WNW 9.2 mph - N/A   Scattered Clouds
12:55 PM 64.2 °F - 40.8 °F 42% 30.05 in 10.0 mi WNW 9.2 mph 16.1 mph N/A   Clear
1:15 PM 64.4 °F - 41.2 °F 43% 30.04 in 10.0 mi WNW 9.2 mph 17.3 mph N/A   Scattered Clouds
1:35 PM 65.3 °F - 41.5 °F 42% 30.04 in 10.0 mi WNW 15.0 mph - N/A   Scattered Clouds
1:55 PM 65.5 °F - 41.2 °F 41% 30.03 in 10.0 mi NW 9.2 mph 21.9 mph N/A   Clear
2:15 PM 65.1 °F - 39.9 °F 40% 30.03 in 10.0 mi NW 5.8 mph - N/A   Scattered Clouds
2:35 PM 65.3 °F - 39.6 °F 39% 30.02 in 10.0 mi NW 9.2 mph - N/A   Scattered Clouds
2:55 PM 65.1 °F - 39.9 °F 40% 30.02 in 10.0 mi NNW 6.9 mph - N/A   Scattered Clouds
3:15 PM 66.2 °F - 40.8 °F 40% 30.02 in 10.0 mi NW 9.2 mph 17.3 mph N/A   Scattered Clouds
3:35 PM 67.3 °F - 40.8 °F 38% 30.02 in 10.0 mi NW 8.1 mph - N/A   Scattered Clouds
3:55 PM 66.4 °F - 40.8 °F 39% 30.02 in 10.0 mi North 8.1 mph - N/A   Clear
4:15 PM 66.2 °F - 39.0 °F 37% 30.02 in 10.0 mi NW 8.1 mph 16.1 mph N/A   Clear
4:35 PM 66.4 °F - 39.6 °F 37% 30.01 in 10.0 mi NW 8.1 mph - N/A   Clear
4:55 PM 65.8 °F - 38.5 °F 37% 30.01 in 10.0 mi WNW 4.6 mph - N/A   Clear
5:15 PM 65.7 °F - 38.7 °F 37% 30.01 in 10.0 mi NNW 6.9 mph - N/A   Clear
5:35 PM 65.3 °F - 39.4 °F 39% 30.01 in 10.0 mi NNW 5.8 mph - N/A   Clear
5:55 PM 64.0 °F - 39.9 °F 41% 30.02 in 10.0 mi North 10.4 mph - N/A   Clear
6:15 PM 63.5 °F - 39.4 °F 41% 30.02 in 10.0 mi NNE 5.8 mph - N/A   Clear
6:35 PM 62.6 °F - 39.6 °F 43% 30.03 in 10.0 mi North 8.1 mph - N/A   Clear
6:55 PM 62.4 °F - 39.2 °F 42% 30.03 in 10.0 mi North 8.1 mph - N/A   Clear
7:15 PM 60.8 °F - 39.6 °F 46% 30.04 in 10.0 mi NNE 6.9 mph - N/A   Clear
7:35 PM 59.7 °F - 40.6 °F 49% 30.03 in 10.0 mi NNE 5.8 mph - N/A   Clear
7:55 PM 58.5 °F - 43.2 °F 57% 30.05 in 10.0 mi North 6.9 mph - N/A   Clear
8:15 PM 58.1 °F - 40.1 °F 51% 30.05 in 10.0 mi NNE 8.1 mph - N/A   Clear
8:35 PM 56.5 °F - 42.6 °F 60% 30.04 in 10.0 mi ENE 4.6 mph - N/A   Clear
8:55 PM 54.7 °F - 43.7 °F 66% 30.06 in 10.0 mi NE 5.8 mph - N/A   Clear
9:15 PM 55.4 °F - 40.5 °F 57% 30.07 in 10.0 mi NE 9.2 mph - N/A   Clear
9:35 PM 53.4 °F - 40.6 °F 62% 30.10 in 10.0 mi NE 9.2 mph - N/A   Clear
9:55 PM 52.7 °F - 41.7 °F 66% 30.10 in 10.0 mi ENE 6.9 mph - N/A   Clear
10:15 PM 51.3 °F - 41.2 °F 68% 30.12 in 10.0 mi NE 4.6 mph - N/A   Clear
10:35 PM 51.8 °F - 40.8 °F 66% 30.12 in 10.0 mi ENE 5.8 mph - N/A   Clear
10:55 PM 51.8 °F - 37.6 °F 58% 30.12 in 10.0 mi East 4.6 mph - N/A   Clear
11:15 PM 51.1 °F - 41.5 °F 70% 30.13 in 10.0 mi East 6.9 mph - N/A   Scattered Clouds
11:35 PM 50.9 °F - 41.9 °F 71% 30.13 in 10.0 mi East 6.9 mph - N/A   Clear
11:55 PM 50.4 °F - 40.6 °F 69% 30.14 in 10.0 mi East 5.8 mph - N/A   Clear